AAL2766 KLAX-KDFW

Flight info

Callsign AAL2766
Flight time 2h 29m
Altitude 35000
Route DOTSS2 CNERY BLH J169 TFD/N0448F370 J50 SSO J4 INK GEEKY BOOVE7
Aircraft B738/M-SDE2E3FGHIRWXY/LB1

Departure

Time 2026-04-25 21:56
Airport Los Angeles International Airport (KLAX)

Arrival

Time 2026-04-26 00:25
Airport Dallas Fort Worth International Airport (KDFW)
Time Latitude Longitude Altitude Speed Heading
2026-04-25 21:24 33.94151 -118.40515 125 ft 0 kts 84°
2026-04-25 21:41 33.94150 -118.40528 120 ft 3 kts 83°
2026-04-25 21:42 33.94148 -118.40550 123 ft 3 kts 104°
2026-04-25 21:42 33.94157 -118.40568 121 ft 3 kts 156°
2026-04-25 21:42 33.94176 -118.40575 120 ft 2 kts 172°
2026-04-25 21:42 33.94181 -118.40575 121 ft 0 kts 172°
2026-04-25 21:46 33.94174 -118.40574 120 ft 4 kts 172°
2026-04-25 21:46 33.94129 -118.40567 121 ft 7 kts 173°
2026-04-25 21:47 33.94079 -118.40560 123 ft 7 kts 173°
2026-04-25 21:47 33.94030 -118.40553 122 ft 7 kts 172°
2026-04-25 21:47 33.94022 -118.40552 123 ft 0 kts 172°
2026-04-25 21:48 33.94018 -118.40551 123 ft 4 kts 173°
2026-04-25 21:49 33.93969 -118.40544 123 ft 3 kts 173°
2026-04-25 21:49 33.93903 -118.40534 123 ft 15 kts 173°
2026-04-25 21:49 33.93836 -118.40509 123 ft 6 kts 121°
2026-04-25 21:49 33.93837 -118.40409 125 ft 20 kts 82°
2026-04-25 21:50 33.93855 -118.40227 122 ft 22 kts 82°
2026-04-25 21:50 33.93874 -118.40046 125 ft 21 kts 83°
2026-04-25 21:50 33.93890 -118.39880 125 ft 15 kts 83°
2026-04-25 21:50 33.93899 -118.39797 123 ft 15 kts 83°
2026-04-25 21:51 33.93915 -118.39633 125 ft 16 kts 83°
2026-04-25 21:51 33.93932 -118.39474 125 ft 22 kts 83°
2026-04-25 21:51 33.93955 -118.39245 121 ft 33 kts 83°
2026-04-25 21:51 33.93986 -118.38937 123 ft 38 kts 81°
2026-04-25 21:52 33.94019 -118.38624 123 ft 36 kts 83°
2026-04-25 21:52 33.94041 -118.38413 121 ft 15 kts 83°
2026-04-25 21:52 33.94046 -118.38357 124 ft 1 kts 92°
2026-04-25 21:52 33.94042 -118.38351 123 ft 0 kts 134°
2026-04-25 21:54 33.94024 -118.38339 125 ft 9 kts 159°
2026-04-25 21:54 33.93960 -118.38330 125 ft 4 kts 217°
2026-04-25 21:54 33.93953 -118.38353 122 ft 0 kts 256°
2026-04-25 21:55 33.93938 -118.38482 120 ft 47 kts 263°
2026-04-25 21:55 33.93865 -118.39192 121 ft 121 kts 263°
2026-04-25 21:56 33.93756 -118.40426 305 ft 165 kts 261°
2026-04-25 21:56 33.93668 -118.41324 909 ft 157 kts 261°
2026-04-25 21:56 33.93460 -118.43098 2009 ft 165 kts 261°
2026-04-25 21:56 33.93306 -118.44544 2428 ft 190 kts 262°
2026-04-25 21:57 33.93117 -118.46227 2605 ft 213 kts 256°
2026-04-25 21:57 33.92420 -118.47884 2772 ft 236 kts 229°
2026-04-25 21:57 33.91160 -118.49131 3447 ft 235 kts 218°
2026-04-25 21:57 33.89962 -118.50442 4036 ft 238 kts 230°
2026-04-25 21:58 33.88876 -118.52044 4471 ft 253 kts 232°
2026-04-25 21:58 33.87727 -118.53760 4947 ft 272 kts 231°
2026-04-25 21:58 33.86349 -118.55277 5995 ft 265 kts 209°
2026-04-25 21:58 33.84590 -118.55907 6868 ft 272 kts 187°
2026-04-25 21:59 33.82700 -118.55648 7591 ft 279 kts 169°
2026-04-25 21:59 33.80805 -118.55113 8477 ft 277 kts 169°
2026-04-25 21:59 33.78921 -118.54571 9335 ft 279 kts 170°
2026-04-25 22:00 33.75061 -118.53511 10567 ft 301 kts 171°
2026-04-25 22:00 33.72918 -118.52939 10831 ft 323 kts 171°
2026-04-25 22:00 33.70766 -118.52363 11923 ft 313 kts 171°
2026-04-25 22:00 33.68747 -118.51224 12638 ft 335 kts 145°
2026-04-25 22:01 33.67332 -118.48911 13483 ft 357 kts 117°
2026-04-25 22:01 33.66700 -118.45966 14238 ft 369 kts 109°
2026-04-25 22:01 33.66102 -118.42959 14778 ft 379 kts 110°
2026-04-25 22:01 33.65694 -118.40863 15288 ft 382 kts 109°
2026-04-25 22:02 33.64909 -118.36732 16338 ft 385 kts 109°
2026-04-25 22:02 33.64367 -118.33540 16832 ft 396 kts 102°
2026-04-25 22:02 33.64252 -118.30190 17412 ft 404 kts 95°
2026-04-25 22:02 33.64290 -118.26791 18028 ft 408 kts 94°
2026-04-25 22:03 33.64354 -118.23370 18552 ft 412 kts 94°
2026-04-25 22:03 33.64408 -118.19913 19035 ft 416 kts 94°
2026-04-25 22:03 33.64441 -118.16463 19490 ft 420 kts 95°
2026-04-25 22:03 33.64458 -118.12923 20007 ft 424 kts 95°
2026-04-25 22:04 33.64462 -118.09363 20539 ft 428 kts 95°
2026-04-25 22:04 33.64461 -118.05759 21020 ft 431 kts 95°
2026-04-25 22:04 33.64457 -118.02192 21543 ft 433 kts 95°
2026-04-25 22:04 33.64451 -117.98550 22008 ft 437 kts 95°
2026-04-25 22:05 33.64444 -117.94919 22438 ft 441 kts 96°
2026-04-25 22:05 33.64437 -117.91202 22856 ft 445 kts 96°
2026-04-25 22:05 33.64430 -117.87472 23293 ft 449 kts 96°
2026-04-25 22:05 33.64421 -117.83701 23706 ft 452 kts 96°
2026-04-25 22:06 33.64383 -117.79910 24090 ft 452 kts 100°
2026-04-25 22:06 33.63803 -117.76295 24440 ft 442 kts 114°
2026-04-25 22:06 33.62907 -117.72751 24840 ft 443 kts 115°
2026-04-25 22:06 33.61976 -117.69207 25236 ft 446 kts 115°
2026-04-25 22:07 33.61052 -117.65679 25627 ft 449 kts 115°
2026-04-25 22:07 33.60440 -117.63308 25874 ft 451 kts 115°
2026-04-25 22:07 33.59213 -117.58454 26359 ft 455 kts 114°
2026-04-25 22:07 33.58306 -117.54807 26730 ft 457 kts 114°
2026-04-25 22:08 33.57409 -117.51184 27070 ft 460 kts 114°
2026-04-25 22:08 33.56495 -117.47487 27418 ft 462 kts 114°
2026-04-25 22:08 33.55574 -117.43772 27690 ft 466 kts 114°
2026-04-25 22:08 33.54645 -117.40033 27995 ft 469 kts 114°
2026-04-25 22:09 33.53710 -117.36268 28302 ft 471 kts 114°
2026-04-25 22:09 33.52779 -117.32528 28601 ft 474 kts 114°
2026-04-25 22:09 33.51830 -117.28729 28905 ft 476 kts 114°
2026-04-25 22:09 33.50877 -117.24912 29200 ft 479 kts 113°
2026-04-25 22:10 33.50367 -117.22311 29353 ft 489 kts 103°
2026-04-25 22:10 33.50207 -117.18194 29639 ft 498 kts 96°
2026-04-25 22:10 33.50201 -117.12660 29994 ft 502 kts 95°
2026-04-25 22:10 33.50207 -117.09828 30128 ft 504 kts 95°
2026-04-25 22:11 33.50204 -117.05664 30335 ft 506 kts 95°
2026-04-25 22:11 33.50179 -117.01432 30556 ft 508 kts 96°
2026-04-25 22:11 33.50134 -116.97164 30784 ft 510 kts 96°
2026-04-25 22:11 33.50076 -116.92947 31077 ft 510 kts 96°
2026-04-25 22:12 33.50010 -116.88675 31391 ft 510 kts 97°
2026-04-25 22:12 33.49942 -116.84430 31621 ft 511 kts 96°
2026-04-25 22:12 33.49872 -116.80162 31849 ft 513 kts 96°
2026-04-25 22:12 33.49825 -116.77317 32022 ft 513 kts 96°
2026-04-25 22:13 33.49731 -116.71642 32364 ft 513 kts 97°
2026-04-25 22:13 33.49659 -116.67347 32639 ft 513 kts 97°
2026-04-25 22:13 33.49587 -116.63062 32869 ft 514 kts 97°
2026-04-25 22:13 33.49512 -116.58765 33096 ft 515 kts 97°
2026-04-25 22:14 33.49437 -116.54521 33267 ft 517 kts 97°
2026-04-25 22:14 33.49359 -116.50191 33436 ft 520 kts 97°
2026-04-25 22:14 33.49280 -116.45859 33727 ft 519 kts 97°
2026-04-25 22:14 33.49200 -116.41531 33992 ft 519 kts 97°
2026-04-25 22:15 33.49129 -116.37193 34205 ft 520 kts 97°
2026-04-25 22:15 33.49067 -116.32853 34406 ft 521 kts 97°
2026-04-25 22:16 33.48877 -116.19838 34881 ft 521 kts 97°
2026-04-25 22:16 33.48735 -116.11149 34875 ft 525 kts 97°
2026-04-25 22:17 33.48852 -116.02387 34844 ft 531 kts 82°
2026-04-25 22:17 33.51216 -115.93964 34857 ft 533 kts 71°
2026-04-25 22:18 33.53781 -115.85683 34849 ft 532 kts 72°
2026-04-25 22:18 33.56255 -115.77314 34863 ft 531 kts 73°
2026-04-25 22:19 33.58675 -115.68942 34840 ft 530 kts 73°
2026-04-25 22:19 33.61081 -115.60628 34825 ft 530 kts 73°
2026-04-25 22:20 33.62789 -115.52114 34826 ft 516 kts 98°
2026-04-25 22:20 33.62400 -115.43539 34835 ft 521 kts 101°
2026-04-25 22:21 33.61956 -115.34791 34834 ft 525 kts 100°
2026-04-25 22:21 33.61595 -115.26077 34818 ft 526 kts 99°
2026-04-25 22:22 33.61264 -115.17281 34825 ft 527 kts 99°
2026-04-25 22:22 33.60928 -115.08522 34824 ft 527 kts 99°
2026-04-25 22:23 33.60577 -114.99729 34809 ft 527 kts 99°
2026-04-25 22:23 33.60219 -114.90952 34834 ft 526 kts 99°
2026-04-25 22:24 33.59858 -114.82239 34848 ft 525 kts 99°
2026-04-25 22:24 33.59441 -114.73478 34840 ft 523 kts 102°
2026-04-25 22:25 33.58696 -114.64825 34849 ft 521 kts 104°
2026-04-25 22:25 33.57852 -114.56177 34839 ft 521 kts 104°
2026-04-25 22:26 33.57046 -114.47589 34835 ft 521 kts 103°
2026-04-25 22:26 33.56258 -114.38923 34824 ft 522 kts 103°
2026-04-25 22:27 33.55475 -114.30320 34829 ft 522 kts 103°
2026-04-25 22:27 33.54678 -114.21659 34828 ft 522 kts 103°
2026-04-25 22:28 33.53874 -114.13017 34835 ft 522 kts 103°
2026-04-25 22:28 33.53063 -114.04365 34823 ft 522 kts 103°
2026-04-25 22:29 33.52245 -113.95694 34847 ft 522 kts 103°
2026-04-25 22:29 33.51427 -113.87082 34866 ft 522 kts 103°
2026-04-25 22:30 33.50200 -113.74143 34895 ft 522 kts 103°
2026-04-25 22:30 33.49511 -113.66927 34911 ft 523 kts 103°
2026-04-25 22:31 33.48540 -113.56841 34923 ft 523 kts 103°
2026-04-25 22:31 33.47700 -113.48157 34905 ft 524 kts 103°
2026-04-25 22:32 33.46847 -113.39462 34832 ft 524 kts 104°
2026-04-25 22:32 33.45103 -113.31206 34834 ft 503 kts 123°
2026-04-25 22:33 33.42094 -113.23685 34840 ft 499 kts 126°
2026-04-25 22:33 33.39059 -113.16234 34841 ft 501 kts 126°
2026-04-25 22:34 33.36041 -113.08695 34834 ft 504 kts 125°
2026-04-25 22:34 33.33027 -113.01094 34851 ft 506 kts 125°
2026-04-25 22:35 33.30006 -112.93473 34829 ft 507 kts 125°
2026-04-25 22:35 33.26985 -112.85878 34857 ft 508 kts 125°
2026-04-25 22:36 33.23931 -112.78224 34857 ft 509 kts 125°
2026-04-25 22:36 33.20889 -112.70622 34861 ft 510 kts 125°
2026-04-25 22:37 33.17819 -112.62961 34859 ft 510 kts 125°
2026-04-25 22:37 33.14764 -112.55357 34850 ft 510 kts 125°
2026-04-25 22:38 33.11684 -112.47705 34841 ft 509 kts 125°
2026-04-25 22:38 33.08617 -112.40100 34829 ft 507 kts 125°
2026-04-25 22:39 33.05568 -112.32563 34838 ft 506 kts 125°
2026-04-25 22:39 33.02495 -112.24984 34843 ft 506 kts 125°
2026-04-25 22:40 32.99444 -112.17473 34854 ft 505 kts 125°
2026-04-25 22:40 32.96372 -112.09928 34834 ft 505 kts 126°
2026-04-25 22:41 32.93322 -112.02448 34884 ft 504 kts 125°
2026-04-25 22:41 32.90241 -111.94909 34904 ft 505 kts 126°
2026-04-25 22:42 32.87604 -111.87100 34910 ft 521 kts 112°
2026-04-25 22:42 32.85843 -111.78706 34915 ft 524 kts 111°
2026-04-25 22:43 32.84059 -111.70285 34910 ft 523 kts 112°
2026-04-25 22:43 32.82205 -111.61969 34897 ft 523 kts 112°
2026-04-25 22:44 32.80312 -111.53578 34834 ft 523 kts 112°
2026-04-25 22:44 32.78430 -111.45250 34861 ft 523 kts 112°
2026-04-25 22:45 32.76538 -111.36892 34855 ft 522 kts 113°
2026-04-25 22:45 32.74646 -111.28558 34871 ft 522 kts 113°
2026-04-25 22:46 32.72755 -111.20272 34869 ft 522 kts 113°
2026-04-25 22:46 32.70848 -111.11935 34856 ft 523 kts 112°
2026-04-25 22:47 32.68934 -111.03587 34849 ft 523 kts 113°
2026-04-25 22:47 32.67025 -110.95294 34792 ft 523 kts 113°
2026-04-25 22:48 32.65109 -110.86995 34825 ft 522 kts 113°
2026-04-25 22:48 32.63178 -110.78660 34818 ft 522 kts 113°
2026-04-25 22:49 32.61254 -110.70383 34819 ft 522 kts 113°
2026-04-25 22:49 32.59320 -110.62086 34825 ft 521 kts 113°
2026-04-25 22:50 32.57383 -110.53802 34834 ft 520 kts 113°
2026-04-25 22:50 32.55457 -110.45570 34841 ft 521 kts 113°
2026-04-25 22:51 32.53512 -110.37264 34837 ft 523 kts 113°
2026-04-25 22:51 32.51554 -110.28957 34826 ft 523 kts 112°
2026-04-25 22:52 32.49606 -110.20669 34820 ft 525 kts 113°
2026-04-25 22:52 32.47961 -110.13712 34834 ft 524 kts 113°
2026-04-25 22:53 32.45661 -110.04031 34820 ft 523 kts 113°
2026-04-25 22:53 32.43695 -109.95774 34825 ft 522 kts 113°
2026-04-25 22:54 32.41715 -109.87488 34819 ft 521 kts 113°
2026-04-25 22:54 32.39744 -109.79268 34806 ft 521 kts 113°
2026-04-25 22:55 32.37758 -109.71011 34797 ft 520 kts 113°
2026-04-25 22:55 32.36098 -109.64129 34785 ft 519 kts 112°
2026-04-25 22:56 32.33797 -109.54613 34791 ft 519 kts 112°
2026-04-25 22:56 32.31800 -109.46387 34791 ft 519 kts 112°
2026-04-25 22:57 32.29810 -109.38215 34786 ft 519 kts 112°
2026-04-25 22:57 32.27805 -109.29998 34793 ft 520 kts 112°
2026-04-25 22:58 32.26411 -109.22989 34776 ft 528 kts 102°
2026-04-25 22:58 32.25605 -109.14370 34785 ft 531 kts 99°
2026-04-25 22:59 32.24893 -109.05669 34771 ft 531 kts 99°
2026-04-25 22:59 32.24120 -108.97030 34773 ft 531 kts 100°
2026-04-25 23:00 32.23288 -108.88347 34747 ft 530 kts 100°
2026-04-25 23:00 32.22440 -108.79699 34781 ft 529 kts 100°
2026-04-25 23:01 32.21590 -108.71075 34933 ft 529 kts 99°
2026-04-25 23:01 32.20743 -108.62494 34913 ft 528 kts 100°
2026-04-25 23:02 32.19885 -108.53864 34892 ft 527 kts 100°
2026-04-25 23:02 32.19023 -108.45258 34849 ft 527 kts 100°
2026-04-25 23:03 32.18157 -108.36661 34799 ft 527 kts 100°
2026-04-25 23:03 32.17290 -108.28115 34776 ft 527 kts 100°
2026-04-25 23:04 32.16410 -108.19497 34782 ft 527 kts 100°
2026-04-25 23:04 32.15531 -108.10951 34779 ft 527 kts 100°
2026-04-25 23:05 32.14640 -108.02353 34780 ft 527 kts 100°
2026-04-25 23:05 32.13748 -107.93800 34777 ft 527 kts 100°
2026-04-25 23:06 32.12850 -107.85239 34773 ft 527 kts 100°
2026-04-25 23:06 32.12395 -107.80922 34896 ft 527 kts 100°
2026-04-25 23:06 32.11940 -107.76622 34902 ft 528 kts 101°
2026-04-25 23:07 32.11030 -107.68064 34900 ft 528 kts 100°
2026-04-25 23:07 32.10107 -107.59447 34884 ft 530 kts 100°
2026-04-25 23:08 32.09180 -107.50852 34830 ft 530 kts 100°
2026-04-25 23:08 32.08246 -107.42228 34784 ft 529 kts 101°
2026-04-25 23:09 32.07306 -107.33609 34753 ft 528 kts 100°
2026-04-25 23:09 32.06361 -107.24998 34745 ft 527 kts 100°
2026-04-25 23:10 32.05418 -107.16464 34785 ft 527 kts 101°
2026-04-25 23:10 32.04465 -107.07899 34804 ft 527 kts 101°
2026-04-25 23:11 32.03507 -106.99336 34824 ft 526 kts 101°
2026-04-25 23:11 32.02546 -106.90802 34820 ft 526 kts 101°
2026-04-25 23:12 32.01574 -106.82229 34851 ft 526 kts 100°
2026-04-25 23:12 32.00606 -106.73729 34903 ft 526 kts 100°
2026-04-25 23:13 31.99625 -106.65173 34915 ft 527 kts 100°
2026-04-25 23:13 31.98637 -106.56611 34900 ft 528 kts 101°
2026-04-25 23:14 31.97644 -106.48069 34875 ft 530 kts 101°
2026-04-25 23:14 31.96640 -106.39463 34902 ft 530 kts 101°
2026-04-25 23:15 31.95630 -106.30844 34890 ft 531 kts 101°
2026-04-25 23:15 31.94934 -106.22160 34867 ft 533 kts 93°
2026-04-25 23:16 31.94850 -106.13416 34830 ft 534 kts 91°
2026-04-25 23:16 31.94811 -106.04704 34796 ft 534 kts 92°
2026-04-25 23:17 31.94692 -105.95938 34769 ft 534 kts 92°
2026-04-25 23:17 31.94529 -105.87221 34757 ft 533 kts 92°
2026-04-25 23:18 31.94357 -105.78492 34744 ft 532 kts 92°
2026-04-25 23:18 31.94186 -105.69833 34734 ft 531 kts 92°
2026-04-25 23:19 31.94011 -105.61142 34729 ft 530 kts 92°
2026-04-25 23:19 31.93830 -105.52447 34729 ft 529 kts 92°
2026-04-25 23:20 31.93644 -105.43838 34704 ft 528 kts 92°
2026-04-25 23:20 31.93452 -105.35177 34712 ft 528 kts 92°
2026-04-25 23:21 31.93263 -105.26574 34712 ft 528 kts 92°
2026-04-25 23:21 31.93084 -105.17920 34730 ft 528 kts 92°
2026-04-25 23:22 31.92901 -105.09309 34729 ft 528 kts 92°
2026-04-25 23:23 31.92611 -104.96296 34744 ft 530 kts 92°
2026-04-25 23:23 31.92408 -104.87657 34749 ft 531 kts 92°
2026-04-25 23:24 31.92200 -104.78951 34718 ft 530 kts 92°
2026-04-25 23:24 31.91994 -104.70294 34736 ft 528 kts 92°
2026-04-25 23:25 31.91768 -104.61653 34742 ft 528 kts 92°
2026-04-25 23:25 31.91541 -104.53014 34742 ft 529 kts 92°
2026-04-25 23:26 31.91311 -104.44418 34731 ft 529 kts 92°
2026-04-25 23:26 31.91074 -104.35755 34722 ft 529 kts 92°
2026-04-25 23:27 31.90831 -104.27092 34726 ft 529 kts 92°
2026-04-25 23:27 31.90582 -104.18427 34730 ft 530 kts 92°
2026-04-25 23:28 31.90327 -104.09785 34723 ft 531 kts 92°
2026-04-25 23:28 31.90066 -104.01101 34703 ft 531 kts 92°
2026-04-25 23:29 31.89798 -103.92407 34692 ft 531 kts 92°
2026-04-25 23:29 31.89526 -103.83769 34694 ft 532 kts 92°
2026-04-25 23:30 31.89246 -103.75046 34692 ft 532 kts 92°
2026-04-25 23:30 31.88960 -103.66327 34691 ft 533 kts 92°
2026-04-25 23:31 31.88667 -103.57595 34693 ft 533 kts 92°
2026-04-25 23:31 31.88370 -103.48928 34686 ft 533 kts 92°
2026-04-25 23:32 31.88066 -103.40217 34683 ft 532 kts 92°
2026-04-25 23:32 31.87758 -103.31524 34685 ft 531 kts 92°
2026-04-25 23:33 31.87623 -103.22890 34672 ft 530 kts 83°
2026-04-25 23:33 31.88695 -103.14336 34684 ft 527 kts 78°
2026-04-25 23:34 31.89927 -103.05820 34689 ft 527 kts 78°
2026-04-25 23:34 31.91103 -102.97355 34689 ft 527 kts 78°
2026-04-25 23:35 31.92235 -102.88832 34685 ft 527 kts 79°
2026-04-25 23:35 31.93351 -102.80274 34690 ft 527 kts 79°
2026-04-25 23:36 31.94451 -102.71788 34686 ft 527 kts 78°
2026-04-25 23:36 31.95559 -102.63241 34686 ft 527 kts 78°
2026-04-25 23:37 31.96661 -102.54690 34723 ft 527 kts 78°
2026-04-25 23:37 31.97751 -102.46195 34757 ft 527 kts 78°
2026-04-25 23:38 31.98843 -102.37630 34797 ft 528 kts 78°
2026-04-25 23:38 31.99924 -102.29106 34824 ft 528 kts 78°
2026-04-25 23:39 32.01006 -102.20531 34828 ft 529 kts 78°
2026-04-25 23:39 32.02085 -102.11930 34826 ft 529 kts 78°
2026-04-25 23:40 32.03158 -102.03327 34837 ft 530 kts 78°
2026-04-25 23:40 32.04218 -101.94780 34803 ft 531 kts 78°
2026-04-25 23:41 32.05281 -101.86155 34764 ft 531 kts 78°
2026-04-25 23:41 32.06342 -101.77504 34722 ft 532 kts 78°
2026-04-25 23:42 32.07389 -101.68916 34754 ft 532 kts 78°
2026-04-25 23:42 32.08439 -101.60247 34776 ft 533 kts 78°
2026-04-25 23:43 32.09482 -101.51588 34798 ft 533 kts 78°
2026-04-25 23:43 32.10517 -101.42956 34785 ft 534 kts 78°
2026-04-25 23:44 32.11378 -101.35728 34762 ft 534 kts 78°
2026-04-25 23:44 32.12571 -101.25647 34724 ft 533 kts 78°
2026-04-25 23:45 32.13419 -101.18437 34646 ft 532 kts 78°
2026-04-25 23:45 32.14431 -101.09796 34647 ft 530 kts 78°
2026-04-25 23:46 32.15427 -101.01232 34653 ft 529 kts 78°
2026-04-25 23:46 32.16424 -100.92613 34649 ft 527 kts 78°
2026-04-25 23:47 32.17404 -100.84094 34651 ft 526 kts 78°
2026-04-25 23:47 32.18383 -100.75526 34658 ft 525 kts 78°
2026-04-25 23:48 32.19357 -100.66952 34660 ft 525 kts 78°
2026-04-25 23:48 32.20318 -100.58446 34661 ft 526 kts 78°
2026-04-25 23:49 32.21280 -100.49872 34663 ft 526 kts 78°
2026-04-25 23:49 32.22238 -100.41275 34661 ft 527 kts 78°
2026-04-25 23:50 32.23189 -100.32695 34666 ft 527 kts 78°
2026-04-25 23:50 32.24130 -100.24142 34666 ft 527 kts 78°
2026-04-25 23:51 32.25074 -100.15519 34670 ft 527 kts 78°
2026-04-25 23:51 32.26004 -100.06959 34666 ft 528 kts 78°
2026-04-25 23:52 32.26934 -99.98350 34669 ft 528 kts 78°
2026-04-25 23:52 32.27860 -99.89727 34677 ft 527 kts 78°
2026-04-25 23:53 32.28536 -99.81130 34700 ft 529 kts 83°
2026-04-25 23:53 32.28921 -99.72443 34693 ft 529 kts 84°
2026-04-25 23:54 32.29306 -99.63742 34688 ft 529 kts 83°
2026-04-25 23:54 32.29735 -99.55125 34689 ft 528 kts 83°
2026-04-25 23:55 32.30180 -99.46462 34698 ft 527 kts 83°
2026-04-25 23:55 32.30619 -99.37797 34704 ft 526 kts 83°
2026-04-25 23:56 32.31043 -99.29225 34688 ft 525 kts 83°
2026-04-25 23:56 32.31462 -99.20612 34703 ft 524 kts 83°
2026-04-25 23:57 32.31865 -99.12146 34676 ft 502 kts 83°
2026-04-25 23:57 32.32057 -99.08060 34675 ft 489 kts 82°
2026-04-25 23:57 32.32243 -99.04144 34689 ft 475 kts 82°
2026-04-25 23:57 32.32424 -99.00288 34669 ft 462 kts 82°
2026-04-25 23:58 32.32603 -98.96496 34704 ft 461 kts 82°
2026-04-25 23:58 32.32970 -98.88867 34732 ft 473 kts 82°
2026-04-25 23:59 32.33341 -98.80993 34727 ft 484 kts 82°
2026-04-25 23:59 32.33707 -98.72985 34717 ft 487 kts 82°
2026-04-26 00:00 32.34060 -98.65128 34692 ft 473 kts 82°
2026-04-26 00:00 32.34408 -98.57384 34744 ft 470 kts 82°
2026-04-26 00:01 32.34750 -98.49700 34742 ft 471 kts 82°
2026-04-26 00:01 32.35090 -98.41921 34724 ft 472 kts 82°
2026-04-26 00:02 32.35425 -98.34157 34559 ft 479 kts 82°
2026-04-26 00:02 32.35594 -98.30205 33855 ft 481 kts 82°
2026-04-26 00:02 32.35758 -98.26257 33102 ft 480 kts 83°
2026-04-26 00:02 32.35922 -98.22281 32082 ft 486 kts 83°
2026-04-26 00:03 32.36084 -98.18279 31286 ft 486 kts 84°
2026-04-26 00:03 32.36241 -98.14355 30734 ft 479 kts 84°
2026-04-26 00:03 32.36395 -98.10450 30225 ft 472 kts 84°
2026-04-26 00:03 32.36548 -98.06587 29682 ft 466 kts 84°
2026-04-26 00:04 32.36699 -98.02768 29026 ft 460 kts 84°
2026-04-26 00:04 32.36848 -97.98997 28370 ft 455 kts 84°
2026-04-26 00:04 32.36994 -97.95292 27290 ft 460 kts 84°
2026-04-26 00:04 32.37146 -97.91454 25910 ft 472 kts 85°
2026-04-26 00:05 32.37300 -97.87529 24551 ft 481 kts 85°
2026-04-26 00:05 32.37456 -97.83540 23300 ft 487 kts 85°
2026-04-26 00:05 32.37612 -97.79515 22049 ft 486 kts 86°
2026-04-26 00:05 32.37763 -97.75587 21103 ft 479 kts 86°
2026-04-26 00:06 32.37912 -97.71676 20260 ft 469 kts 86°
2026-04-26 00:06 32.38058 -97.67840 19371 ft 462 kts 85°
2026-04-26 00:06 32.38554 -97.64168 18479 ft 452 kts 68°
2026-04-26 00:06 32.39899 -97.60886 17743 ft 435 kts 52°
2026-04-26 00:07 32.41817 -97.58221 17090 ft 415 kts 39°
2026-04-26 00:07 32.43893 -97.55927 16576 ft 401 kts 38°
2026-04-26 00:07 32.45889 -97.53721 16247 ft 385 kts 38°
2026-04-26 00:07 32.47777 -97.51605 15959 ft 370 kts 39°
2026-04-26 00:08 32.49588 -97.49553 15841 ft 353 kts 39°
2026-04-26 00:08 32.51250 -97.47664 15641 ft 352 kts 39°
2026-04-26 00:08 32.53014 -97.45656 15362 ft 350 kts 39°
2026-04-26 00:08 32.54748 -97.43676 15093 ft 350 kts 39°
2026-04-26 00:09 32.56507 -97.41665 14807 ft 351 kts 39°
2026-04-26 00:09 32.58265 -97.39652 14512 ft 351 kts 39°
2026-04-26 00:09 32.60028 -97.37632 14220 ft 352 kts 39°
2026-04-26 00:09 32.61788 -97.35613 13923 ft 351 kts 39°
2026-04-26 00:10 32.63539 -97.33604 13624 ft 348 kts 39°
2026-04-26 00:10 32.65256 -97.31633 13300 ft 345 kts 39°
2026-04-26 00:10 32.66976 -97.29658 12995 ft 340 kts 40°
2026-04-26 00:10 32.68644 -97.27741 12837 ft 325 kts 40°
2026-04-26 00:11 32.70251 -97.25893 12677 ft 317 kts 40°
2026-04-26 00:11 32.71800 -97.24111 12536 ft 308 kts 40°
2026-04-26 00:11 32.73314 -97.22369 12393 ft 298 kts 40°
2026-04-26 00:11 32.74792 -97.20668 12276 ft 294 kts 41°
2026-04-26 00:12 32.76258 -97.18982 12154 ft 290 kts 40°
2026-04-26 00:12 32.77741 -97.17439 11988 ft 275 kts 24°
2026-04-26 00:12 32.79455 -97.16754 11863 ft 258 kts
2026-04-26 00:12 32.81247 -97.16609 11598 ft 259 kts 354°
2026-04-26 00:13 32.83069 -97.16605 11368 ft 264 kts 353°
2026-04-26 00:13 32.84917 -97.16617 11124 ft 268 kts 353°
2026-04-26 00:13 32.86824 -97.16624 10863 ft 279 kts 354°
2026-04-26 00:13 32.88794 -97.16620 10596 ft 285 kts 355°
2026-04-26 00:14 32.90795 -97.16606 10326 ft 288 kts 355°
2026-04-26 00:14 32.92803 -97.16586 10053 ft 288 kts 355°
2026-04-26 00:14 32.94790 -97.16562 9933 ft 281 kts 355°
2026-04-26 00:14 32.96715 -97.16538 9672 ft 275 kts 354°
2026-04-26 00:15 32.98630 -97.16519 9007 ft 283 kts 354°
2026-04-26 00:15 33.00612 -97.16499 8475 ft 285 kts 355°
2026-04-26 00:15 33.02600 -97.16477 8053 ft 284 kts 355°
2026-04-26 00:15 33.04555 -97.16451 7785 ft 277 kts 355°
2026-04-26 00:16 33.06479 -97.16428 7412 ft 275 kts 355°
2026-04-26 00:16 33.08370 -97.16406 7000 ft 275 kts 355°
2026-04-26 00:16 33.10274 -97.16385 6618 ft 273 kts 355°
2026-04-26 00:16 33.12205 -97.16365 6051 ft 279 kts 356°
2026-04-26 00:17 33.14172 -97.16344 5441 ft 285 kts 357°
2026-04-26 00:17 33.16182 -97.16322 4810 ft 292 kts 358°
2026-04-26 00:17 33.18207 -97.16298 4301 ft 294 kts 358°
2026-04-26 00:17 33.20226 -97.16278 4121 ft 284 kts 357°
2026-04-26 00:18 33.22167 -97.16125 4008 ft 278 kts 17°
2026-04-26 00:18 33.23714 -97.14887 4006 ft 262 kts 56°
2026-04-26 00:18 33.24455 -97.12999 4011 ft 246 kts 81°
2026-04-26 00:18 33.24595 -97.11160 4003 ft 239 kts 101°
2026-04-26 00:19 33.24176 -97.09294 4023 ft 229 kts 122°
2026-04-26 00:19 33.23307 -97.07739 4006 ft 223 kts 139°
2026-04-26 00:19 33.22066 -97.06638 4023 ft 223 kts 158°
2026-04-26 00:19 33.20667 -97.05794 4022 ft 226 kts 159°
2026-04-26 00:20 33.19189 -97.05319 4020 ft 216 kts 183°
2026-04-26 00:20 33.17679 -97.05367 4008 ft 217 kts 183°
2026-04-26 00:20 33.16191 -97.05357 4009 ft 216 kts 182°
2026-04-26 00:20 33.14688 -97.05351 4003 ft 215 kts 182°
2026-04-26 00:21 33.13173 -97.05354 4024 ft 222 kts 183°
2026-04-26 00:21 33.11609 -97.05362 4014 ft 228 kts 183°
2026-04-26 00:21 33.10009 -97.05370 3974 ft 232 kts 182°
2026-04-26 00:21 33.08371 -97.05379 3738 ft 238 kts 182°
2026-04-26 00:22 33.06733 -97.05387 3448 ft 238 kts 182°
2026-04-26 00:22 33.05068 -97.05395 3150 ft 240 kts 182°
2026-04-26 00:22 33.03388 -97.05404 2832 ft 242 kts 182°
2026-04-26 00:22 33.01708 -97.05411 2509 ft 238 kts 182°
2026-04-26 00:23 33.00066 -97.05420 2216 ft 232 kts 181°
2026-04-26 00:23 32.98491 -97.05429 1927 ft 218 kts 181°
2026-04-26 00:23 32.97047 -97.05436 1655 ft 201 kts 181°
2026-04-26 00:23 32.95708 -97.05440 1436 ft 184 kts 181°
2026-04-26 00:24 32.94477 -97.05450 1182 ft 171 kts 180°
2026-04-26 00:24 32.93369 -97.05455 1025 ft 147 kts 181°
2026-04-26 00:24 32.92361 -97.05463 805 ft 146 kts 180°
2026-04-26 00:24 32.91348 -97.05470 634 ft 145 kts 179°
2026-04-26 00:25 32.90438 -97.05469 602 ft 114 kts 179°
2026-04-26 00:25 32.89791 -97.05473 615 ft 72 kts 180°
2026-04-26 00:25 32.89403 -97.05475 603 ft 37 kts 179°
2026-04-26 00:25 32.89147 -97.05475 595 ft 36 kts 183°
2026-04-26 00:26 32.88912 -97.05458 594 ft 33 kts 167°
2026-04-26 00:26 32.88769 -97.05387 591 ft 14 kts 152°
2026-04-26 00:26 32.88687 -97.05330 591 ft 13 kts 149°
2026-04-26 00:26 32.88619 -97.05263 588 ft 13 kts 114°
2026-04-26 00:27 32.88608 -97.05154 586 ft 13 kts 92°
2026-04-26 00:27 32.88608 -97.05045 587 ft 13 kts 90°
2026-04-26 00:27 32.88607 -97.04935 588 ft 14 kts 91°
2026-04-26 00:27 32.88606 -97.04817 587 ft 14 kts 89°
2026-04-26 00:28 32.88607 -97.04755 586 ft 7 kts 90°
2026-04-26 00:28 32.88606 -97.04674 587 ft 14 kts 91°
2026-04-26 00:28 32.88680 -97.04573 590 ft 18 kts 50°
2026-04-26 00:28 32.88735 -97.04539 593 ft 8 kts 315°
2026-04-26 00:29 32.88795 -97.04635 593 ft 22 kts 313°
2026-04-26 00:29 32.88972 -97.04725 590 ft 34 kts 345°
2026-04-26 00:29 32.89204 -97.04764 594 ft 33 kts 358°
2026-04-26 00:29 32.89428 -97.04766 594 ft 31 kts
2026-04-26 00:30 32.89647 -97.04764 597 ft 32 kts
2026-04-26 00:30 32.89875 -97.04763 596 ft 34 kts 359°
2026-04-26 00:30 32.90109 -97.04762 597 ft 33 kts
2026-04-26 00:30 32.90311 -97.04760 596 ft 9 kts
2026-04-26 00:31 32.90332 -97.04721 595 ft 9 kts 83°
2026-04-26 00:31 32.90333 -97.04642 595 ft 11 kts 97°
2026-04-26 00:31 32.90263 -97.04577 595 ft 15 kts 143°
2026-04-26 00:31 32.90185 -97.04487 595 ft 16 kts 134°
2026-04-26 00:32 32.90131 -97.04380 595 ft 14 kts 101°
2026-04-26 00:32 32.90138 -97.04353 595 ft 3 kts 38°
2026-04-26 00:32 32.90172 -97.04342 595 ft 0 kts 17°
2026-04-26 00:33 32.90176 -97.04341 595 ft 2 kts 18°
2026-04-26 00:33 32.90190 -97.04336 595 ft 0 kts 18°
2026-04-26 00:33 32.90190 -97.04335 595 ft 0 kts 19°
2026-04-26 00:33 32.90192 -97.04335 595 ft 0 kts 18°